Погода в Братолюбовке

Украина / Кировоградская область     48°12′23″N   32°57′07″E
темп.,
°C
ветер,
м/с
пор.,
м/с
влажн.,
%
обл.,
%
осадки,
мм/ч
давл.,
гПа
погр.,
м
19 сентября, вс
вс1900:00+17з4789100 0.3 1007390
03:00+15зсз3788100 0.3 1008297
06:00+14зсз349348 0.0 100875
09:00+16зсз34705 0.0 1009341
12:00+20з345063 0.0 10091161
15:00+22зюз463957 0.0 10082177
18:00+21зюз4741100 0.0 1007543
21:00+16ююз2564100 0.2 1008119
20 сентября, пн
пн2000:00+13сз697686 0.1 1009362
03:00+11зсз597196 0.1 1010497
06:00+10з487310 0.0 1010650
09:00+11з676373 0.0 10101086
12:00+11з676297 0.0 10111097
15:00+13з7857100 0.0 10111376
18:00+11з61070100 0.0 1012891
21:00+11з486991 0.0 1013857
21 сентября, вт
вт2100:00+9з487721 0.0 1014299
03:00+8зсз698031 0.0 1014530
06:00+8зсз7959100 0.0 10141353
09:00+9з6863100 0.0 1015954
12:00+10зсз7860100 0.0 10151193
15:00+7зсз71087100 0.1 1016809
18:00+7зсз61079100 0.1 1016991
21:00+7зсз61082100 0.1 10171049
22 сентября, ср
ср2200:00+7зсз61079100 0.1 10171169
03:00+6зсз6882100 0.1 1016987
06:00+6зсз5883100 0.1 1016836
09:00+6зсз5783100 0.1 1016930
12:00+7зсз5778100 0.1 1016975
15:00+7зсз5673100 0.1 1015956
18:00+7сз4680100 0.1 1015996
21:00+6сз4489100 0.1 1016648
23 сентября, чт
чт2300:00+6сз3585100 0.0 1015565
03:00+6сз3483100 0.0 1014562
06:00+6сз248399 0.1 1014432
09:00+7сз337689 0.1 1014717
12:00+8зсз3370100 0.1 1013850
15:00+8зсз336497 0.2 1013929
18:00+8сз446575 0.0 1014690
21:00+6сз358191 0.0 1014304